This demonstration page uses our WeatherBlox Daily Observations layout. Learn more.

Left ArrowRight Arrow

39.92423, -83.80882

Hourly Observations for August 6, 2019

Temp ( °F °C ) Dew Point ( °F °C ) Humidity (%) Winds ( mph kmh ) Pressure ( in mb ) Visibility ( mi km ) Precip ( " mm )
12:56 am 00:56 Clear 68 20 65 18.3 90 90 N N/A 29.92 1013 10 16.0934 N/A
1:56 am 01:56 Clear 69 20.6 65 18.3 87 87 SW 6 9 29.9 1013 10 16.0934 N/A
2:56 am 02:56 Clear 68 20 65 18.3 90 90 SW 7 11 29.88 1012 10 16.0934 N/A
3:56 am 03:56 Clear 68 20 65 18.3 90 90 SW 6 9 29.87 1012 10 16.0934 N/A
4:56 am 04:56 Clear 69 20.6 66 18.9 90 90 N N/A 29.87 1012 10 16.0934 N/A
5:56 am 05:56 Clear 68 20 65 18.3 90 90 S 3 6 29.87 1012 10 16.0934 N/A
6:56 am 06:56 Sunny 67 19.4 65 18.3 93 93 SSW 5 7 29.88 1012 10 16.0934 N/A
7:56 am 07:56 Sunny 69 20.6 66 18.9 90 90 SSW 7 11 29.88 1012 10 16.0934 N/A
8:56 am 08:56 Sunny 73 22.8 67 19.4 81 81 SW 7 11 29.87 1011 10 16.0934 N/A
9:56 am 09:56 Sunny 76 24.4 68 20 77 77 SSW 3 6 29.86 1011 10 16.0934 N/A
10:56 am 10:56 Sunny 82 27.8 68 20 63 63 SW 12 19 29.85 1011 10 16.0934 N/A
11:56 am 11:56 Partly Cloudy 84 28.9 65 18.3 53 53 SW 17 28 29.85 1011 9 14.48406 N/A
12:56 pm 12:56 Mostly Sunny 83 28.3 66 18.9 57 57 WSW 13 20 29.85 1011 10 16.0934 N/A
1:56 pm 13:56 Mostly Cloudy 85 29.4 67 19.4 55 55 WSW 14 22 29.82 1010 10 16.0934 N/A
2:56 pm 14:56 Mostly Sunny 86 30 66 18.9 51 51 W 18 30 29.8 1009 10 16.0934 N/A
3:08 pm 15:08 Mostly Cloudy with Heavy Thunderstorms 70 21 64 18 83 83 WSW 33 54 29.8 1009 2.5 4.02335 0.08 2.032
3:23 pm 15:23 Mostly Cloudy with Light Thunderstorms 68 20 66 19 94 94 S 8 13 29.82 1010 10 16.0934 0.15 3.81
3:48 pm 15:48 Mostly Cloudy 70 21 68 20 94 94 S 8 13 29.81 1009 10 16.0934 0.15 3.81
3:56 pm 15:56 Mostly Cloudy 71 21.7 69 20.6 94 94 SSW 6 9 29.82 1010 10 16.0934 0.15 3.81
4:56 pm 16:56 Mostly Sunny 79 26.1 73 22.8 82 82 SSW 7 11 29.8 1009 10 16.0934 N/A
5:56 pm 17:56 Mostly Cloudy 82 27.8 69 20.6 65 65 WSW 15 24 29.78 1009 10 16.0934 N/A
6:52 pm 18:52 Cloudy with Nearby Thunderstorms 82 28 70 21 66 66 NW 8 13 29.73 1007 10 16.0934 N/A
6:56 pm 18:56 Cloudy with Nearby Thunderstorms 83 28.3 68 20 61 61 NW 12 19 29.77 1008 10 16.0934 N/A
7:56 pm 19:56 Cloudy 74 23.3 69 20.6 85 85 SSW 5 7 29.8 1009 10 16.0934 N/A
8:56 pm 20:56 Clear 72 22.2 70 21.1 94 94 WSW 3 6 29.8 1009 10 16.0934 N/A
9:56 pm 21:56 Mostly Clear 69 20.6 69 20.6 100 100 N N/A 29.82 1010 10 16.0934 N/A
10:56 pm 22:56 Clear 67 19.4 67 19.4 100 100 N N/A 29.82 1010 8 12.87472 N/A
11:56 pm 23:56 Clear with Mist and Fog 66 18.9 66 18.9 100 100 N N/A 29.82 1010 4 6.43736 N/A

Powered by AerisWeather